This is the latest recevied weather packets stored in our database for station/object LINCON. If no packets are shown the sender has not sent any weather packets the latest 10 day(s).
| Time | Temp. | Humidity | Pressure | Rain* | Wind** | Luminosity | Snow |
|---|---|---|---|---|---|---|---|
| 1777132800 | 19.44° C | 35% | 1007.6 hPa | 0 mm | - | - | - |
| 1777132499 | 18.89° C | 36% | 1007.7 hPa | 0 mm | - | - | - |
| 1777132199 | 18.33° C | 38% | 1007.7 hPa | 0 mm | - | - | - |
| 1777131899 | 17.78° C | 45% | 1007.7 hPa | 0 mm | - | - | - |
| 1777131599 | 16.67° C | 46% | 1007.7 hPa | 0 mm | - | - | - |
| 1777131299 | 16.11° C | 44% | 1007.8 hPa | 0 mm | - | - | - |
| 1777130999 | 15.56° C | 50% | 1007.7 hPa | 0 mm | - | - | - |
| 1777130699 | 15° C | 49% | 1007.8 hPa | 0 mm | - | - | - |
| 1777130399 | 15.56° C | 49% | 1007.7 hPa | 0 mm | - | - | - |
| 1777130099 | 15.56° C | 49% | 1007.8 hPa | 0 mm | - | - | - |
| 1777129800 | 15.56° C | 49% | 1007.8 hPa | 0 mm | - | - | - |
| 1777129499 | 15° C | 52% | 1007.8 hPa | 0 mm | - | - | - |
| 1777129199 | 13.89° C | 53% | 1007.8 hPa | 0 mm | - | - | - |
| 1777128899 | 13.33° C | 55% | 1007.8 hPa | 0 mm | - | - | - |
| 1777128599 | 12.78° C | 55% | 1007.7 hPa | 0 mm | - | - | - |
| 1777128299 | 12.22° C | 57% | 1007.8 hPa | 0 mm | - | - | - |
| 1777127999 | 12.22° C | 57% | 1007.8 hPa | 0 mm | - | - | - |
| 1777127699 | 12.22° C | 57% | 1007.8 hPa | 0 mm | - | - | - |
| 1777127399 | 12.22° C | 57% | 1007.8 hPa | 0 mm | - | - | - |
| 1777127099 | 12.22° C | 57% | 1007.8 hPa | 0 mm | - | - | - |
| 1777126799 | 12.78° C | 57% | 1007.7 hPa | 0 mm | - | - | - |
| 1777126499 | 12.78° C | 56% | 1007.8 hPa | 0 mm | - | - | - |
| 1777126199 | 12.78° C | 57% | 1007.7 hPa | 0 mm | - | - | - |
| 1777125899 | 12.22° C | 57% | 1007.7 hPa | 0 mm | - | - | - |
| 1777125599 | 12.22° C | 58% | 1007.7 hPa | 0 mm | - | - | - |
* Rain latest hour (hover to see other rain measurements)
** Current wind speed in m/s (hover to see current wind gust speed)